Le nostre stazioni meteo in Italia

Pubblicità
Il mio iltempo24.it
Rodkallen, Svezia (2188): Temperatura & dewpoint: 14.04.2018 20:00:00 - 20.04.2018 20:00:00 (CEST)Rodkallen, Svezia (2188): velocità del vento & gusts: 14.04.2018 20:00:00 - 20.04.2018 20:00:00 (CEST)Rodkallen, Svezia (2188): direzione del vento: 14.04.2018 20:00:00 - 20.04.2018 20:00:00 (CEST)Rodkallen, Svezia (2188): visibility: 14.04.2018 20:00:00 - 20.04.2018 20:00:00 (CEST)Rodkallen, Svezia (2188): precipitazioni: 14.04.2018 20:00:00 - 20.04.2018 20:00:00 (CEST)
Data & Tempo tt [°C] td [°C] ff [km/h] ff [kn] fx [km/h] fx [kn] dd vv [km] rr [mm]
20.04.2018 20:00:00 - - - - - - - - -
20.04.2018 19:00:00 0,7 0,1 13 7 19 10 SE 23 0,0
20.04.2018 18:00:00 0,7 0,0 16 8 19 10 SSE 24 0,0
20.04.2018 17:00:00 0,9 0,0 11 6 15 8 S 15 0,0
20.04.2018 16:00:00 1,8 0,8 11 6 15 8 SE 25 0,0
20.04.2018 15:00:00 2,1 0,6 9 5 15 8 SSE 24 0,0
20.04.2018 14:00:00 2,6 0,5 5 3 18 10 ESE 21 0,0
20.04.2018 13:00:00 2,4 1,1 6 3 18 10 ENE 10 0,0
20.04.2018 12:00:00 1,9 0,3 12 6 14 8 N 19 0,0
20.04.2018 11:00:00 2,0 0,8 9 5 18 10 O 17 0,0
20.04.2018 10:00:00 1,2 0,6 11 6 21 12 OSO 10 0,0
20.04.2018 09:00:00 0,9 0,3 16 9 25 14 SO 13 0,0
20.04.2018 08:00:00 0,7 0,3 21 11 27 15 SSO 16 0,0
20.04.2018 07:00:00 0,6 0,2 22 12 28 15 S 12 0,0
20.04.2018 06:00:00 0,7 0,1 22 12 28 15 SSE 9 0,2
20.04.2018 05:00:00 0,8 0,1 22 12 28 15 SE 22 0,6
20.04.2018 04:00:00 0,6 -0,3 14 8 16 8 E 8 0,8
20.04.2018 03:00:00 0,9 -0,3 10 6 19 10 SE 29 0,6
20.04.2018 02:00:00 0,7 -0,6 9 5 19 10 S 7 0,0
20.04.2018 01:00:00 1,2 -0,7 12 6 17 9 SE 50 0,0
20.04.2018 00:00:00 1,3 -0,6 14 8 16 9 ESE 50 0,0
19.04.2018 23:00:00 1,8 -0,8 12 7 13 7 SSE 50 0,0
19.04.2018 22:00:00 1,3 -0,6 8 4 20 11 S 50 0,0
19.04.2018 21:00:00 1,5 -0,6 10 5 25 14 S 50 0,0
19.04.2018 20:00:00 0,7 -1,5 10 6 25 14 SSE 50 0,0
19.04.2018 19:00:00 1,7 -1,2 19 11 23 12 E 50 0,0
19.04.2018 18:00:00 3,6 -1,6 6 4 8 4 E 50 0,0
19.04.2018 17:00:00 4,0 -1,4 3 2 10 6 E 45 0,0
19.04.2018 16:00:00 3,0 -1,4 6 3 11 6 SO 43 0,0
19.04.2018 15:00:00 5,3 -1,2 5 3 22 12 NO 47 0,0
19.04.2018 14:00:00 6,2 -1,7 6 4 27 15 NNO 50 0,0
19.04.2018 13:00:00 4,9 -1,1 13 7 27 15 N 43 0,0
19.04.2018 12:00:00 4,0 -1,0 11 6 27 15 NNO 46 0,0
19.04.2018 11:00:00 4,8 -1,4 17 9 31 17 NO 50 0,0
19.04.2018 10:00:00 3,8 -1,2 18 10 31 17 ONO 42 0,0
19.04.2018 09:00:00 3,4 -0,8 18 10 30 16 ONO 39 0,0
19.04.2018 08:00:00 4,4 -1,2 22 12 28 15 NO 41 0,0
19.04.2018 07:00:00 2,7 -1,5 21 12 28 15 NO 50 0,0
19.04.2018 06:00:00 -1,9 -4,7 17 9 29 15 ONO 50 0,0
19.04.2018 05:00:00 1,3 -2,6 16 9 29 15 NO 50 0,0
19.04.2018 04:00:00 -1,7 -3,6 17 9 20 11 ONO 50 0,0
19.04.2018 03:00:00 -2,5 -4,4 14 7 17 9 O 48 0,0
19.04.2018 02:00:00 -1,5 -3,4 16 9 17 9 OSO 40 0,0
19.04.2018 01:00:00 -1,9 -3,9 12 6 15 8 OSO 50 0,0
19.04.2018 00:00:00 -2,0 -3,9 12 6 14 8 SO 50 0,0
18.04.2018 23:00:00 -1,8 -3,5 11 6 16 9 SO 50 0,0
18.04.2018 22:00:00 -1,5 -3,1 11 6 17 9 SSO 50 0,0
18.04.2018 21:00:00 -1,4 -3,0 12 6 18 10 S 50 0,0
18.04.2018 20:00:00 -0,6 -2,3 15 8 19 10 S 50 0,0
18.04.2018 19:00:00 0,3 -1,9 16 9 19 11 S 48 0,0
18.04.2018 18:00:00 0,6 -1,6 16 9 19 11 S 50 0,0
18.04.2018 17:00:00 1,3 -1,4 17 9 22 12 S 46 0,0
18.04.2018 16:00:00 1,9 -1,4 18 10 22 12 S 45 0,0
18.04.2018 15:00:00 2,0 -1,6 16 9 20 11 S 48 0,0
18.04.2018 14:00:00 2,2 -1,4 17 9 19 10 S 50 0,0
18.04.2018 13:00:00 2,1 -1,2 14 8 18 10 S 35 0,0
18.04.2018 12:00:00 2,2 -1,4 16 9 18 10 S 32 0,0
18.04.2018 11:00:00 1,8 -1,3 11 6 18 10 S 39 0,0
18.04.2018 10:00:00 1,5 -1,4 13 7 15 8 S 39 0,0
18.04.2018 09:00:00 -0,1 -2,6 9 5 15 8 S 32 0,0
18.04.2018 08:00:00 - - - - - - - - -
18.04.2018 07:00:00 -3,4 -6,2 8 5 9 5 S 43 0,0
18.04.2018 06:00:00 -4,2 -7,0 5 3 7 4 SSO 49 0,0
18.04.2018 05:00:00 -3,9 -6,5 6 3 6 3 OSO 50 0,0
18.04.2018 04:00:00 -3,4 -6,6 0 0 9 5 N 50 0,0
18.04.2018 03:00:00 -2,6 -5,7 4 2 12 6 ONO 50 0,0
18.04.2018 02:00:00 -2,6 -5,9 5 3 13 7 NO 50 0,0
18.04.2018 01:00:00 -0,4 -6,0 10 6 16 8 ONO 50 0,0
18.04.2018 00:00:00 2,1 -4,2 10 6 16 9 ONO 50 0,0
17.04.2018 23:00:00 1,4 -4,3 13 7 16 9 ONO 50 0,0
17.04.2018 22:00:00 1,2 -4,1 14 8 16 8 ONO 50 0,0
17.04.2018 21:00:00 3,7 -3,3 10 6 13 7 ONO 50 0,0
17.04.2018 20:00:00 3,8 -3,3 9 5 13 7 ONO 50 0,0
17.04.2018 19:00:00 5,3 -2,8 9 5 14 8 NNO 50 0,0
17.04.2018 18:00:00 8,2 -3,0 11 6 18 10 NNO 50 0,0
17.04.2018 17:00:00 7,7 -2,9 11 6 18 10 NNO 50 0,0
17.04.2018 16:00:00 6,1 -2,3 14 7 21 12 N 43 0,0
17.04.2018 15:00:00 5,7 -2,2 14 8 24 13 NNO 43 0,0
17.04.2018 14:00:00 4,7 -2,2 16 9 26 14 N 46 0,0
17.04.2018 13:00:00 4,4 -2,2 18 10 26 14 N 39 0,0
17.04.2018 12:00:00 3,7 -1,9 16 9 24 13 N 33 0,0
17.04.2018 11:00:00 3,1 -2,4 14 8 24 13 NNO 50 0,0
17.04.2018 10:00:00 2,4 -2,3 18 10 24 13 N 50 0,0
17.04.2018 09:00:00 0,6 -3,3 15 8 20 11 N 42 0,0
17.04.2018 08:00:00 -0,2 -3,7 10 5 16 9 NNO 44 0,0
17.04.2018 07:00:00 -3,0 -6,3 6 3 23 12 NNO 43 0,0
17.04.2018 06:00:00 -3,1 -5,6 5 3 23 12 NNO 47 0,0
17.04.2018 05:00:00 -1,9 -4,7 13 7 16 9 N 48 0,0
17.04.2018 04:00:00 -2,8 -4,7 5 3 14 8 NO 50 0,0
17.04.2018 03:00:00 -3,3 -4,9 11 6 13 7 N 48 0,0
17.04.2018 02:00:00 -2,0 -3,6 2 1 8 5 NNE 50 0,0
17.04.2018 01:00:00 -0,7 -3,6 0 0 18 10 N 50 0,0
17.04.2018 00:00:00 -3,5 -4,5 9 5 18 10 SSO 28 0,0
16.04.2018 23:00:00 -2,4 -3,2 2 1 16 8 O 14 0,0
16.04.2018 22:00:00 -1,9 -3,0 3 2 16 8 OSO 42 0,0
16.04.2018 21:00:00 -0,3 -2,0 11 6 12 6 O 45 0,0
16.04.2018 20:00:00 -0,3 -2,0 8 5 14 7 SSO 45 0,0
16.04.2018 19:00:00 0,2 -2,3 7 4 16 9 S 38 0,0
16.04.2018 18:00:00 1,0 -2,2 14 7 16 9 SE 43 0,0
16.04.2018 17:00:00 1,9 -2,6 7 4 12 6 ESE 49 0,0
16.04.2018 16:00:00 2,0 -2,1 8 4 10 5 SE 33 0,0
16.04.2018 15:00:00 3,1 -1,3 6 3 10 5 SE 26 0,0
16.04.2018 14:00:00 3,3 -3,7 5 3 8 5 ENE 39 0,0
16.04.2018 13:00:00 3,1 -4,6 7 4 13 7 NNE 44 0,0
16.04.2018 12:00:00 3,0 -4,7 6 3 14 7 N 39 0,0
16.04.2018 11:00:00 1,3 -4,0 12 6 14 7 NNO 40 0,0
16.04.2018 10:00:00 0,5 -4,3 5 3 18 10 N 42 0,0
16.04.2018 09:00:00 -1,8 -5,6 10 6 19 10 N 39 0,0
16.04.2018 08:00:00 -3,7 -7,3 14 8 19 10 N 47 0,0
16.04.2018 07:00:00 -3,7 -7,1 14 8 17 9 NNO 45 0,0
16.04.2018 06:00:00 -5,5 -9,2 8 5 12 6 N 50 0,0
16.04.2018 05:00:00 -5,0 -8,1 8 4 12 6 N 50 0,0
16.04.2018 04:00:00 -5,1 -8,4 8 5 13 7 N 50 0,0
16.04.2018 03:00:00 -2,4 -6,9 11 6 13 7 N 50 0,0
16.04.2018 02:00:00 -1,5 -6,6 11 6 13 7 NNO 50 0,0
16.04.2018 01:00:00 -1,5 -5,2 5 3 7 4 NNO 50 0,0
16.04.2018 00:00:00 -1,5 -4,8 4 2 5 3 NO 50 0,0
15.04.2018 23:00:00 -2,2 -4,2 0 0 5 3 N 50 0,0
15.04.2018 22:00:00 0,3 -4,2 0 0 6 3 N 50 0,0
15.04.2018 21:00:00 0,9 -3,6 0 0 9 5 N 50 0,0
15.04.2018 20:00:00 0,1 -3,3 7 4 9 5 O 50 0,0
15.04.2018 19:00:00 0,5 -2,2 2 1 3 2 OSO 30 0,0
15.04.2018 18:00:00 2,0 -3,1 0 0 7 4 N 40 0,0
15.04.2018 17:00:00 2,6 -3,1 2 1 8 5 E 42 0,0
15.04.2018 16:00:00 2,5 -2,6 4 2 13 7 NE 50 0,0
15.04.2018 15:00:00 1,3 -1,9 8 5 16 9 NE 38 0,0
15.04.2018 14:00:00 1,5 -2,3 10 5 19 10 NE 35 0,0
15.04.2018 13:00:00 1,3 -2,5 15 8 25 13 NNE 33 0,0
15.04.2018 12:00:00 1,2 -2,7 15 8 25 14 NNE 35 0,0
15.04.2018 11:00:00 0,9 -3,8 22 12 29 16 NNE 40 0,0
15.04.2018 10:00:00 -0,6 -4,1 14 7 29 16 N 37 0,0
15.04.2018 09:00:00 -2,0 -5,8 19 10 27 15 N 40 0,0
15.04.2018 08:00:00 -4,6 -7,8 18 10 27 15 N 50 0,0
15.04.2018 07:00:00 -6,2 -9,2 24 13 28 15 N 47 0,0
15.04.2018 06:00:00 -7,2 -9,9 24 13 28 15 N 50 0,0
15.04.2018 05:00:00 -7,1 -9,8 22 12 26 14 N 50 0,0
15.04.2018 04:00:00 -5,5 -8,1 20 11 31 17 N 50 0,0
15.04.2018 03:00:00 -5,1 -7,5 22 12 31 17 NNO 50 0,0
15.04.2018 02:00:00 -5,7 -7,7 13 7 23 13 N 50 0,0
15.04.2018 01:00:00 -3,1 -5,0 15 8 23 13 N 50 0,0
15.04.2018 00:00:00 -4,5 -5,6 12 6 23 13 N 29 0,0
14.04.2018 23:00:00 -3,1 -4,7 18 10 23 12 N 50 0,0
14.04.2018 22:00:00 -2,2 -3,5 21 11 23 12 N 50 0,0
14.04.2018 21:00:00 -1,7 -3,0 19 10 21 11 N 50 0,0
14.04.2018 20:00:00 -0,6 -1,9 11 6 16 9 NNE 50 0,0

tt = Temperatura
td = dewpoint
ff = velocità del vento
fx = gusts
dd = direzione del vento
vv = visibility
rr = precipitazioni

Stazioni seguenti

WeatherPro
AMSI
MeteoEarth